Joplin, MO

4:57 PM CST on December 07, 2019 (GMT -0600)
Joplin Regional

Weather History for KJLN - June, 2019

Change the Weather History Date:

Friday, June 14, 2019

  Actual Average Record
Temperature  
Mean Temperature 71 °F 75 °F  
Max Temperature 80 °F 86 °F 103 °F (1953)
Min Temperature 62 °F 65 °F 56 °F (1989)
Degree Days  
Heating Degree Days 0 0  
Month to date heating degree days 1 2  
Since 1 June heating degree days 1 2  
Since 1 July heating degree days 4416 4071  
Cooling Degree Days 6 10  
Month to date cooling degree days 94 120  
Year to date cooling degree days 247 300  
Since 1 June cooling degree days 94 120  
Growing Degree Days 21 (Base 50)    
Moisture  
Dew Point 56 °F    
Average Humidity 62    
Maximum Humidity 78    
Minimum Humidity 52    
Precipitation  
Precipitation 0.03 in 0.20 in 2.01 in (1983)
Month to date precipitation 1.00 2.83  
Year to date precipitation 29.15 20.78  
Sea Level Pressure  
Sea Level Pressure 29.95 in    
Wind  
Wind Speed 10 mph ()    
Max Wind Speed 29 mph    
Max Gust Speed 40 mph    
Visibility 10.0 miles    
Events Rain    
T = Trace of Precipitation, MM = Missing Value Source: Averaged Metar Reports

Daily Weather History Graph

Daily Weather History Graph

Search for Another Location

Airport or City:

Astronomy

Jun. 14, 2019 Rise Set
Actual Time 5:57 AM CDT 8:39 PM CDT
Civil Twilight 5:26 AM CDT 9:10 PM CDT
Nautical Twilight 4:47 AM CDT 9:48 PM CDT
Astronomical Twilight 4:04 AM CDT 10:32 PM CDT
Moon 6:05 PM CDT (6/14) 4:11 AM CDT (6/14)
Length of Visible Light 15h 43m
Length of Day
14h 41m
Waxing Gibbous, 92% of the Moon is Illuminated
Jun 14
Waxing Gibbous
Jun 17
Full
Jun 25
Last Quarter
Jul 2
New
Jul 9
First Quarter

Hourly Weather History & Observations

Time (CDT) Temp. Dew Point Humidity Pressure Visibility Wind Dir Wind Speed Gust Speed Precip Events Conditions
12:53 AM 64.0 °F 50.0 °F 60% 30.06 in 10.0 mi SE 6.9 mph - N/A   Scattered Clouds
1:53 AM 63.0 °F 51.1 °F 65% 30.05 in 10.0 mi SSE 6.9 mph - N/A   Mostly Cloudy
2:53 AM 64.9 °F 50.0 °F 58% 30.03 in 10.0 mi SSE 8.1 mph - N/A   Mostly Cloudy
3:53 AM 63.0 °F 51.1 °F 65% 30.02 in 10.0 mi SE 8.1 mph - N/A   Overcast
4:53 AM 63.0 °F 50.0 °F 63% 30.01 in 10.0 mi SSE 10.4 mph - N/A   Partly Cloudy
5:53 AM 63.0 °F 50.0 °F 63% 30.04 in 10.0 mi SSE 9.2 mph - N/A   Overcast
6:53 AM 62.1 °F 52.0 °F 70% 30.08 in 10.0 mi South 5.8 mph - 0.00 in Rain Light Rain
7:53 AM 63.0 °F 51.1 °F 65% 30.04 in 10.0 mi SSE 10.4 mph - 0.00 in   Mostly Cloudy
8:53 AM 64.9 °F 53.1 °F 65% 30.06 in 10.0 mi South 10.4 mph - 0.00 in   Scattered Clouds
9:53 AM 62.1 °F 55.0 °F 78% 30.02 in 9.0 mi SSE 12.7 mph - 0.02 in Rain Light Rain
10:53 AM 66.0 °F 55.9 °F 70% 29.98 in 10.0 mi SSE 11.5 mph 19.6 mph 0.01 in   Clear
11:53 AM 70.0 °F 55.9 °F 61% 29.95 in 10.0 mi South 10.4 mph 25.3 mph N/A   Clear
12:53 PM 75.9 °F 60.1 °F 58% 29.92 in 10.0 mi SSW 17.3 mph 32.2 mph N/A   Clear
1:53 PM 79.0 °F 60.1 °F 52% 29.89 in 10.0 mi South 27.6 mph 36.8 mph N/A   Clear
2:53 PM 79.0 °F 60.1 °F 52% 29.88 in 10.0 mi South 19.6 mph 32.2 mph N/A   Clear
3:53 PM 79.0 °F 61.0 °F 54% 29.86 in 10.0 mi South 20.7 mph 28.8 mph N/A   Clear
4:53 PM 79.0 °F 61.0 °F 54% 29.84 in 10.0 mi South 18.4 mph 31.1 mph N/A   Clear
5:53 PM 77.0 °F 62.1 °F 60% 29.82 in 10.0 mi SSE 18.4 mph 25.3 mph N/A   Clear
6:53 PM 77.0 °F 62.1 °F 60% 29.83 in 10.0 mi South 15.0 mph 23.0 mph N/A   Clear
7:53 PM 75.0 °F 62.1 °F 64% 29.83 in 10.0 mi South 10.4 mph - N/A   Partly Cloudy
8:53 PM 75.0 °F 62.1 °F 64% 29.83 in 10.0 mi South 10.4 mph - N/A   Overcast